Location: Newark
(52.5667°N, 8.8000°W)
Time: 20:52:50
(UTC+00:00)

N. Korean satellite - Pass Details

Date: 30 January 2020
Orbit: 456 x 505 km, 97.2° (Epoch: 26 February)

Event Time Altitude Azimuth Distance (km) Brightness Sun altitude
Rises 05:07:41 0° 33° (NNE) 2,557 10.8 -29.3°
Reaches altitude 10° 05:11:26 10° 74° (ENE) 1,683 10.2 -28.7°
Maximum altitude 05:12:14 11° 87° (E) 1,649 10.2 -28.6°
Drops below altitude 10° 05:13:01 10° 99° (E) 1,686 10.2 -28.5°
Sets 05:16:48 0° 140° (SE) 2,573 10.7 -27.9°
